OneWeb SL0576

operational
NORAD ID: 56065 Int'l Des: 2023-043 Owner: ONEWEBN Country: UK Constellation: oneweb
LEOCIRCULARPOLARONEWEB_TYPE

Über OneWeb SL0576

Beschreibung wird geladen...

Live-Position

3D-Globus wird geladen...

Nächste Überflüge

Höhenverlauf

Altitude vs Time

uPlot chart will show altitude changes over time

Zweizeiliger Elementsatz

1 56065U 23043V 25258.56058730 -.00000049 00000-0 -16304-3 0 9992
2 56065 87.8990 283.4994 0002144 92.8110 267.3266 13.16594189122820
Epoch: 15. Sept. 2025 • Age: 14 hours

Aktueller Status

Höhe 1200.0 km
Geschwindigkeit 7.25 km/s
Subsatellitenpunkt 4.59°N, 61.26°E
Startdatum 26. März 2023
Alter 2.4 years
Typ internet

Technische Details

Klassifizierung Payload
Masse 148.00 kg
Trockenmasse 140.00 kg
Gesamtmasse 148.00 kg
Länge 1.30 m
Durchmesser 1.00 m
Spannweite 5.00 m
Form Trapezoid+2 pan
Hersteller ONEWUS
Bus-Typ ARROW
Phasenstatus In Orbit
Besitzer/Staat ONEWEBN/UK

Große Konstellationen

Loading constellations...